Home > Weather > Adelaide > Past weeks

Flag for Australia Weather for the Past 2 Weeks in Adelaide, South Australia, Australia

Now
72 °F

Passing clouds.


Feels Like: 76 °F
Forecast: 61 / 80 °F
Wind: 6 mph from Southwest

Location: Adelaide Airport

Current Time: Feb 12, 2016 at 10:48:38 AM

Latest Report: Feb 12, 2016 at 9:30 AM


Visibility: N/A

Pressure: 29.98 "Hg

Humidity: 57%

Dew point: 55 °F

Location of AdelaideLocation

Historic Weather in Adelaide — Graph

°F

Adelaide Temperature Yesterday

Maximum temperature yesterday: 90 °F (at 2:30 PM)
Minimum temperature yesterday: 63 °F (at 3:30 AM)
Average temperature yesterday: 73 °F

High & Low Weather Summary for the Past Weeks

 TemperatureHumidityPressure
High90 °F (Feb 11, 2:30 PM)94% (Jan 29, 11:34 PM)30.18 "Hg (Jan 29, 11:34 PM)
Low55 °F (Jan 29, 6:30 AM)22% (Feb 11, 2:30 PM)29.39 "Hg (Feb 2, 8:19 AM)
Average69 °F61%29.87 "Hg
* Reported Jan 28 7:30 AM — Feb 12 7:30 AM, Adelaide, Weather by CustomWeather, © 2016

Note: Actual official high and low records may vary slightly from our data, if they occured in-between our weather recording intervals... More about our weather records

Advertising

Adelaide Weather History for the Previous 24 Hours

 ConditionsComfort  
Time TempWeatherWind HumidityBarometerVisibility
7:30 AM
Fri, Feb 12
61 °FSunny.5 mph77%29.98 "Hg10 mi
7:00 AM59 °FClear.No wind82%29.98 "Hg10 mi
6:30 AM59 °FClear.No wind77%29.95 "Hg10 mi
6:00 AM59 °FClear.3 mph82%29.95 "Hg10 mi
5:30 AM59 °FClear.5 mph77%29.95 "Hg10 mi
5:00 AM59 °FClear.5 mph77%29.95 "Hg10 mi
4:30 AM61 °FClear.6 mph77%29.95 "Hg10 mi
4:00 AM63 °FClear.5 mph73%29.92 "Hg10 mi
3:30 AM63 °FClear.6 mph73%29.95 "Hg10 mi
3:00 AM63 °FClear.6 mph73%29.95 "Hg10 mi
2:30 AM63 °FClear.7 mph73%29.95 "Hg10 mi
2:00 AM64 °FClear.12 mph64%29.95 "Hg10 mi
1:30 AM63 °FClear.10 mph68%29.98 "Hg10 mi
1:00 AM64 °FClear.10 mph68%29.98 "Hg10 mi
12:30 AM64 °FClear.9 mph64%29.98 "Hg10 mi
12:00 AM64 °FClear.9 mph64%29.98 "Hg10 mi
11:30 PM
Thu, Feb 11
66 °FClear.10 mph64%29.98 "Hg10 mi
11:00 PM66 °FClear.12 mph64%29.98 "Hg10 mi
10:30 PM66 °FClear.10 mph64%30.01 "Hg10 mi
10:00 PM66 °FClear.14 mph64%29.98 "Hg10 mi
9:30 PM68 °FClear.13 mph60%29.98 "Hg10 mi
9:00 PM68 °FClear.10 mph60%29.98 "Hg10 mi
8:30 PM70 °FSunny.13 mph57%29.95 "Hg10 mi
8:00 PM72 °FSunny.13 mph53%29.95 "Hg10 mi
7:30 PM75 °FSunny.18 mph47%29.95 "Hg10 mi
7:00 PM79 °FSunny.16 mph37%29.92 "Hg10 mi
6:30 PM82 °FSunny.14 mph30%29.92 "Hg10 mi
6:00 PM84 °FSunny.15 mph29%29.92 "Hg10 mi
5:30 PM86 °FSunny.15 mph25%29.92 "Hg10 mi
5:00 PM86 °FSunny.13 mph25%29.92 "Hg10 mi
4:30 PM86 °FSunny.13 mph22%29.92 "Hg10 mi
4:00 PM88 °FSunny.14 mph22%29.92 "Hg10 mi
3:30 PM88 °FSunny.13 mph25%29.92 "Hg10 mi
3:00 PM88 °FSunny.15 mph25%29.92 "Hg10 mi
2:30 PM90 °FSunny.13 mph22%29.92 "Hg10 mi
2:00 PM88 °FSunny.14 mph24%29.92 "Hg10 mi
1:30 PM86 °FPassing clouds.13 mph27%29.92 "HgN/A
12:30 PM82 °FPassing clouds.6 mph35%29.95 "HgN/A
12:00 PM81 °FSunny.6 mph39%29.98 "Hg10 mi
11:30 AM81 °FSunny.5 mph34%29.98 "Hg10 mi
11:00 AM79 °FPassing clouds.5 mph37%29.98 "HgN/A
10:30 AM77 °FSunny.6 mph42%29.98 "Hg10 mi
10:00 AM75 °FPassing clouds.3 mph44%29.98 "HgN/A
Weather by CustomWeather, © 2016

See weather overviewHow to use our weather pages